Location: Arcones
(41.1182°N, 3.7238°W)
Time: 12:51:27
(UTC+00:00)

IRIDIUM 106 - Pass Details

Date: 14 March 2026
Orbit: 776 x 780 km, 86.4° (Epoch: 14 April)

Event Time Altitude Azimuth Distance (km) Brightness Sun altitude
Exits shadow 22:03:05 15° 347° (NNW) 1,981 6.8 -39.8°
Drops below altitude 10° 22:04:04 10° 351° (N) 2,340 7.3 -40.0°
Sets 22:06:31 0° 357° (N) 3,271 8.1 -40.3°
